Location: Saddleback Butte
(34.6776°N, 117.8050°W)
Time: 11:16:57
(UTC-07:00)

Iridium 35 - Visible Passes

Search period start: 25 April 2015 00:00
Search period end: 05 May 2015 00:00
Orbit: 776 x 779 km, 86.4° (Epoch: 24 April)

Date Brightness Start Highest point End Pass type
(mag) Time Alt. Az. Time Alt. Az. Time Alt. Az.
25 Apr 7.3 04:58:29 10° SE 05:02:44 27° E 05:07:08 10° NNE visible
26 Apr 8.0 04:26:55 10° ESE 04:29:25 14° E 04:32:12 10° NE visible
27 Apr 5.2 05:30:59 10° S 05:36:11 79° E 05:41:24 10° N visible
28 Apr 6.5 04:57:55 10° SSE 05:02:44 40° E 05:07:36 10° NNE visible
29 Apr 7.5 04:25:37 10° SE 04:29:21 21° E 04:33:16 10° NE visible
30 Apr 8.2 03:55:17 10° E 03:56:03 10° E 03:57:12 10° ENE visible
30 Apr 5.0 05:31:04 10° S 05:36:15 70° W 05:41:27 10° N visible
01 May 5.6 04:57:38 10° SSE 05:02:44 60° E 05:07:53 10° N visible
02 May 6.9 04:24:50 10° SE 04:29:19 31° E 04:33:54 10° NNE visible
03 May 7.7 03:52:58 10° ESE 03:55:58 16° E 03:59:14 10° NE visible
03 May 5.4 05:31:22 10° SSW 05:36:22 46° W 05:41:21 10° NNW visible
04 May 5.0 04:57:34 10° S 05:02:46 90° E 05:08:01 10° N visible
